Weather in Surovikino

Russia / Volgograd Oblast     48°36′19″N   42°50′39″E
temp.,
°C
wind,
m/s
gust,
m/s
humid.,
%
clouds,
%
prec.,
mm/h
press.,
hPa
HPBL,
m
26 february, fri
fri2600:00−4wsw71393100 0.7 1022438
03:00−1w61395100 0.9 1021397
06:00−1w4998100 0.3 1020234
09:00+1w4998100 0.4 1020263
12:00+2w4899100 0.1 1020217
15:00+3wsw5999100 0.1 1019276
18:00+4w51099100 0.0 1017208
21:00+4wsw61298100 0.0 1016319
27 february, sat
sat2700:00+4w71497100 0.0 1015455
03:00+4wsw61395100 0.2 1014445
06:00+3w61395100 0.0 1012422
09:00+3w61293100 0.0 1012558
12:00+5w71185100 0.0 1011861
15:00+3w61195100 0.1 1011588
18:00+2w51292100 0.1 1011510
21:00+1wnw51192100 0.1 1012357
28 february, sun
sun2800:00+1wnw4109298 0.1 1012399
03:00+1wnw498899 0.1 1013461
06:000wnw4798100 0.1 1013353
09:00+1nw478699 0.1 1014507
12:00+2nw4676100 0.1 1015782
15:00+2nw577398 0.1 1015906
18:000nw367990 0.0 1016315
21:00−1nnw457595 0.0 1018677
1 march, mon
mon100:00−2n3476100 0.0 1019559
03:00−2n128293 0.0 1021304
06:00−3nne128480 0.0 1022246
09:00−2n237690 0.1 1024607
12:00−1nnw3466100 0.0 1025861
15:00−1nw4466100 0.1 1026882
18:00−1nnw4569100 0.0 1027883
21:00−2nw237299 0.0 1029225
2 march, tue
tue200:00−3wnw22769 0.0 102865
03:00−3w36785 0.0 1028245
06:00−2w597773 0.0 1026402
09:000w7117286 0.0 1024886
12:00+1w81272100 0.0 1022930
15:00+2w91374100 0.1 1020833
18:00+2w81584100 0.0 1017723
21:00+1wnw81495100 0.1 1017740